FENGYUN 1C DEB, 30891

Orbit data source: Space-Track

FENGYUN 1C DEB, 30891 is space debris in SSO originally from a launch on Mon, 10 May 1999 UTC launched from the Taiyaun Space Center, China (TSC). Fengyun 1C debris stems from the Chinese weather satellite Fengyun-1C, which was intentionally destroyed by a Chinese anti-satellite missile in 2007. This event dramatically increased the amount of space debris, with thousands of trackable fragments posing hazards to satellites and human spaceflight. The Fengyun 1C debris cloud has become a focal point in discussions about space sustainability and the need for international regulations to prevent the creation of new debris.

Loading next visibility...
Identifier
30891, 1999-025AYD
Orbit
SSO
Country
Flag of CNCN / PRC
Related business
Manufacturer
Unknown
Mission
Spacecraft
Bus & Motor
Unknown
Mass
Unknown
Launch date (UTC)
1999-05-10 (27 years ago)
Launch vehicle
Unknown
Launch site
Taiyaun Space Center, China (TSC)
Object type
Payload
Rocket body
Debris
Shape & HBR
Unknown shape, 0.1 m
Radar Cross Section
Medium (>0.1 m² and <1 m²)

Expand to show TLE details & history
Last TLE update: 2 days ago

TLE from 2 days ago
0 FENGYUN 1C DEB
1 30891U 99025AYD 26170.95685278  .00000475  00000-0  30975-3 0  9995
2 30891  98.7572 217.6418 0055330  18.1031 103.2685 14.06265719986414
Epoch: 2026-06-19T22:57Z
TLE epoch observation values (Epoch: 2026-06-19T22:57:52.080Z)
Latitude
57.05696°
Longitude
158.67499°
Altitude
891.123 km
Speed
7.407 km/s
True Right ascension
03h 25m 16s
True Declination
56° 54' 10"
Sunlit
Object was in daylight at epoch
Visualization orbit readout
Latitude
Unknown
Longitude
Unknown
Altitude
Unknown
Speed
Unknown
Apparent Right ascension
Unknown
Apparent Declination
Unknown
Sunlit
N/A
Visualization observer readout
Local Sidereal Time
22:50:13
Azimuth
Unknown
Elevation
Unknown
Doppler factor
Unknown
Orbital elements
Apogee altitude
909.458 km
Perigee altitude
829.257 km
Semi-major axis
7,247.495 km
Eccentricity
0.00553
Inclination
98.7572°
RAAN
217.6418°
Arg. of periapsis
18.1031°
True anomaly
103.88462°
Mean anomaly
103.2685°
Eccentric anomaly
103.57666°
Mean motion
3.51772 °/min
Orbital period
102.34 mins
BSTAR
0.00030975
Loading maneuver chart data...
Computing Atmospheric mass density...

Documentation

Showing up to 5 results
|